Tracking 29059 objects as of 19-Jun-2024
HD Live streaming from Space Station
objects crossing your sky now

OBJECT P

Track OBJECT P now!
10-day predictions


NORAD ID: 43771
Int'l Code: 2018-099P
Perigee: 542.4 km
Apogee: 561.8 km
Inclination: 97.5 °
Period: 95.5 minutes
Semi major axis: 6923 km
RCS: Unknown
Launch date: December 3, 2018
Source: United States (US)
Launch site: AIR FORCE WESTERN TEST RANGE (AFWTR)
Your satellite tracking list
Your tracking list is empty




NASA's NSSDC Master Catalog

Two Line Element Set (TLE):
1 43771U 18099P   24170.11465309  .00009245  00000-0  61764-3 0  9999
2 43771  97.5317 228.3427 0014054 314.8649  45.1436 15.07132691302747
Source of the keplerian elements: AFSPC